Location: Dimsdale
(55.1333°N, 118.9833°W)
Time: 02:55:58
(UTC+00:00)

AO-91 - Visible Passes

Search period start: 07 December 2023 00:00
Search period end: 17 December 2023 00:00
Orbit: 445 x 755 km, 97.6° (Epoch: 06 December)

Date Brightness Start Highest point End Pass type
(mag) Time Alt. Az. Time Alt. Az. Time Alt. Az.
07 Dec ? 14:43:10 10° E 14:45:57 15° NE 14:48:40 10° NNE visible
08 Dec ? 14:53:43 10° E 14:56:57 17° NE 15:00:05 10° NNE visible
09 Dec ? 15:04:21 10° E 15:07:56 20° NE 15:11:25 10° N visible
10 Dec ? 15:15:02 10° ESE 15:18:56 23° ENE 15:22:42 10° N visible
11 Dec ? 15:25:46 10° ESE 15:29:56 27° ENE 15:33:56 10° N visible
14 Dec ? 14:27:03 10° ENE 14:28:10 11° NE 14:29:17 10° NNE visible
15 Dec ? 14:37:03 10° ENE 14:39:02 13° NE 14:41:00 10° NNE visible
16 Dec ? 14:47:21 10° E 14:49:55 15° NE 14:52:24 10° NNE visible
